Mankato, MN

11:23 AM CST on December 05, 2019 (GMT -0600)
Mankato Regional

Weather History for KMKT - November, 2019

Change the Weather History Date:

Sunday, November 17, 2019

  Actual Average Record
Temperature  
Mean Temperature 34 °F -  
Max Temperature 37 °F 38 °F 69 °F (2001)
Min Temperature 30 °F 24 °F 1 °F (2018)
Degree Days  
Heating Degree Days 32    
Moisture  
Dew Point 33 °F    
Average Humidity 92    
Maximum Humidity 100    
Minimum Humidity 78    
Precipitation  
Precipitation 0.09 in - - ()
Sea Level Pressure  
Sea Level Pressure 29.94 in    
Wind  
Wind Speed 8 mph ()    
Max Wind Speed 16 mph    
Max Gust Speed 23 mph    
Visibility 8.3 miles    
Events Rain    
Averages and records for this station are not official NWS values.
T = Trace of Precipitation, MM = Missing Value Source: Averaged Metar Reports

Daily Weather History Graph

Daily Weather History Graph

Search for Another Location

Airport or City:

Astronomy

Nov. 17, 2019 Rise Set
Actual Time 7:13 AM CST 4:47 PM CST
Civil Twilight 6:42 AM CST 5:18 PM CST
Nautical Twilight 6:06 AM CST 5:53 PM CST
Astronomical Twilight 5:32 AM CST 6:28 PM CST
Moon 9:21 PM CST (11/17) 12:02 PM CST (11/17)
Length of Visible Light 10h 36m
Length of Day
9h 33m
Waning Gibbous, 73% of the Moon is Illuminated
Nov 17
Waning Gibbous
Nov 19
Last Quarter
Nov 26
New
Dec 4
First Quarter
Dec 11
Full

Hourly Weather History & Observations

Time (CST) Temp. Windchill Dew Point Humidity Pressure Visibility Wind Dir Wind Speed Gust Speed Precip Events Conditions
12:56 AM 37.9 °F 32.7 °F 35.1 °F 89% 29.99 in 7.0 mi South 6.9 mph - N/A Rain Light Rain
1:56 AM 37.0 °F 31.6 °F 35.1 °F 93% 29.98 in 7.0 mi South 6.9 mph - 0.02 in Rain Light Rain
2:40 AM 35.6 °F 29.9 °F 35.6 °F 100% 29.94 in 7.0 mi SSW 6.9 mph - 0.03 in Rain Light Rain
2:56 AM 36.0 °F 29.6 °F 35.1 °F 97% 29.97 in 7.0 mi SSW 8.1 mph - 0.04 in Rain Light Rain
3:03 AM 35.6 °F 29.2 °F 35.6 °F 100% 29.94 in 7.0 mi SSW 8.1 mph - 0.00 in Rain Light Rain
3:34 AM 35.6 °F 30.7 °F 35.6 °F 100% 29.93 in 6.0 mi South 5.8 mph - 0.02 in Rain Light Rain
3:52 AM 35.6 °F 29.9 °F 35.6 °F 100% 29.93 in 5.0 mi SSW 6.9 mph - 0.03 in Rain Light Rain
3:56 AM 36.0 °F 30.3 °F 36.0 °F 100% 29.96 in 5.0 mi SW 6.9 mph - 0.03 in Rain Light Rain
4:09 AM 35.6 °F 31.7 °F 35.6 °F 100% 29.92 in 5.0 mi SW 4.6 mph - 0.00 in Rain Light Rain
4:20 AM 35.6 °F 30.7 °F 35.6 °F 100% 29.92 in 5.0 mi SW 5.8 mph - 0.00 in   Overcast
4:48 AM 35.6 °F 30.7 °F 35.6 °F 100% 29.92 in 4.0 mi SW 5.8 mph - 0.00 in   Overcast
4:56 AM 36.0 °F 30.3 °F 36.0 °F 100% 29.96 in 3.0 mi SW 6.9 mph - 0.00 in   Overcast
5:27 AM 35.6 °F 29.9 °F 35.6 °F 100% 29.92 in 2.5 mi WSW 6.9 mph - N/A   Overcast
5:56 AM 37.0 °F 31.6 °F 37.0 °F 100% 29.96 in 3.0 mi West 6.9 mph - N/A   Overcast
6:56 AM 37.9 °F 30.0 °F 37.0 °F 97% 29.95 in 10.0 mi WNW 12.7 mph - N/A   Overcast
7:13 AM 37.4 °F 32.1 °F 37.4 °F 100% 29.92 in 10.0 mi WNW 6.9 mph - N/A   Overcast
7:49 AM 37.4 °F 31.4 °F 37.4 °F 100% 29.92 in 10.0 mi WNW 8.1 mph - N/A   Overcast
7:56 AM 37.9 °F 32.1 °F 37.0 °F 97% 29.96 in 10.0 mi WNW 8.1 mph - N/A   Overcast
8:24 AM 37.4 °F 29.8 °F 35.6 °F 93% 29.93 in 10.0 mi NW 11.5 mph - N/A   Overcast
8:56 AM 37.0 °F 28.9 °F 35.1 °F 93% 29.97 in 10.0 mi NW 12.7 mph - N/A   Overcast
9:10 AM 37.4 °F 29.8 °F 35.6 °F 93% 29.94 in 10.0 mi NW 11.5 mph - N/A   Overcast
9:54 AM 37.4 °F 29.3 °F 35.6 °F 93% 29.93 in 10.0 mi NW 12.7 mph - N/A   Overcast
9:56 AM 37.9 °F 30.0 °F 35.1 °F 89% 29.97 in 10.0 mi NW 12.7 mph - N/A   Overcast
10:32 AM 37.4 °F 28.5 °F 33.8 °F 87% 29.93 in 10.0 mi NW 15.0 mph - N/A   Overcast
10:56 AM 37.0 °F 28.9 °F 33.1 °F 86% 29.96 in 10.0 mi NW 12.7 mph - N/A   Overcast
11:56 AM 37.0 °F 28.9 °F 33.1 °F 86% 29.95 in 10.0 mi NW 12.7 mph - N/A   Overcast
12:46 PM 37.4 °F 28.2 °F 32.0 °F 81% 29.91 in 10.0 mi WNW 16.1 mph - N/A   Overcast
12:56 PM 37.0 °F 27.7 °F 32.0 °F 82% 29.94 in 10.0 mi WNW 16.1 mph - N/A   Overcast
1:56 PM 36.0 °F 26.7 °F 30.0 °F 79% 29.94 in 10.0 mi WNW 15.0 mph - N/A   Overcast
2:56 PM 35.1 °F 25.9 °F 28.9 °F 78% 29.94 in 10.0 mi NW 13.8 mph - N/A   Overcast
3:56 PM 34.0 °F 25.0 °F 28.9 °F 82% 29.95 in 10.0 mi NW 12.7 mph - N/A   Overcast
4:56 PM 32.0 °F 22.1 °F 28.0 °F 85% 29.96 in 10.0 mi NW 13.8 mph 23.0 mph N/A   Overcast
5:24 PM 32.0 °F 21.6 °F 28.4 °F 87% 29.92 in 10.0 mi NW 15.0 mph - N/A   Overcast
5:56 PM 32.0 °F 22.1 °F 28.0 °F 85% 29.96 in 10.0 mi NNW 13.8 mph - N/A   Overcast
6:53 PM 32.0 °F 26.4 °F 28.4 °F 87% 29.90 in 10.0 mi NNW 5.8 mph - N/A   Overcast
6:56 PM 32.0 °F 25.6 °F 28.0 °F 85% 29.94 in 10.0 mi NNW 6.9 mph - N/A   Overcast
7:56 PM 32.0 °F 27.5 °F 28.9 °F 88% 29.93 in 10.0 mi NW 4.6 mph - N/A   Overcast
8:56 PM 30.9 °F 26.2 °F 28.9 °F 92% 29.93 in 10.0 mi NW 4.6 mph - N/A   Overcast
10:56 PM 30.9 °F 27.5 °F 28.9 °F 92% 29.90 in 10.0 mi NW 3.5 mph - N/A   Overcast
11:56 PM 30.9 °F 26.2 °F 28.9 °F 92% 29.90 in 10.0 mi NW 4.6 mph - N/A   Overcast